Previsão horária em Abingdon

Hoje, 18 Maio, Terça-feira

Tempo Temperatura Precipitação Vento Pressão Humidade
00:00 +5°C° 0 mm 2 m/s 752 mmHg 92%
01:00 +5°C° 0 mm 2 m/s 752 mmHg 92%
02:00 +5°C° 0 mm 2 m/s 753 mmHg 92%
03:00 +5°C° 0 mm 2 m/s 753 mmHg 92%
04:00 +6°C° 0 mm 2 m/s 753 mmHg 93%
05:00 +6°C° 0 mm 2 m/s 753 mmHg 93%
06:00 +7°C° 0 mm 2 m/s 753 mmHg 94%
07:00 +9°C° 0.1 mm 3 m/s 754 mmHg 89%
08:00 +10°C° 0.1 mm 4 m/s 754 mmHg 83%
09:00 +12°C° 0.1 mm 4 m/s 754 mmHg 78%
10:00 +13°C° 0.3 mm 4 m/s 754 mmHg 74%
11:00 +13°C° 0.3 mm 5 m/s 754 mmHg 70%
12:00 +14°C° 0.3 mm 5 m/s 754 mmHg 66%
13:00 +14°C° 0.5 mm 5 m/s 754 mmHg 71%
14:00 +13°C° 0.5 mm 5 m/s 754 mmHg 75%
15:00 +13°C° 0.5 mm 5 m/s 755 mmHg 80%
16:00 +12°C° 0.5 mm 5 m/s 755 mmHg 83%
17:00 +12°C° 0.5 mm 5 m/s 755 mmHg 85%
18:00 +10°C° 0.5 mm 5 m/s 755 mmHg 87%
19:00 +10°C° 0.1 mm 4 m/s 755 mmHg 90%
20:00 +9°C° 0.1 mm 3 m/s 755 mmHg 92%
21:00 +8°C° 0.1 mm 3 m/s 755 mmHg 95%
22:00 +7°C° 0 mm 3 m/s 755 mmHg 95%
23:00 +7°C° 0 mm 2 m/s 755 mmHg 96%

Amanhã, 19 Maio, Quarta-feira

Tempo Temperatura Precipitação Vento Pressão Humidade
00:00 +6°C° 0 mm 2 m/s 755 mmHg 96%
01:00 +6°C° 0.1 mm 2 m/s 755 mmHg 96%
02:00 +6°C° 0.1 mm 2 m/s 755 mmHg 95%
03:00 +7°C° 0.1 mm 1 m/s 755 mmHg 95%
04:00 +7°C° 0 mm 1 m/s 755 mmHg 94%
05:00 +8°C° 0 mm 1 m/s 756 mmHg 94%
06:00 +7°C° 0 mm 2 m/s 756 mmHg 93%
07:00 +9°C° 0 mm 2 m/s 756 mmHg 88%
08:00 +10°C° 0 mm 3 m/s 757 mmHg 83%
09:00 +12°C° 0 mm 3 m/s 757 mmHg 78%
10:00 +13°C° 0.3 mm 3 m/s 757 mmHg 74%
11:00 +14°C° 0.3 mm 3 m/s 757 mmHg 70%
12:00 +14°C° 0.3 mm 4 m/s 757 mmHg 66%
13:00 +14°C° 0.6 mm 4 m/s 758 mmHg 70%
14:00 +14°C° 0.6 mm 4 m/s 758 mmHg 75%
15:00 +14°C° 0.6 mm 5 m/s 758 mmHg 79%
16:00 +13°C° 0.6 mm 4 m/s 759 mmHg 81%
17:00 +12°C° 0.6 mm 4 m/s 759 mmHg 82%
18:00 +12°C° 0.6 mm 4 m/s 759 mmHg 84%
19:00 +10°C° 0 mm 4 m/s 760 mmHg 86%
20:00 +9°C° 0 mm 3 m/s 761 mmHg 88%
21:00 +7°C° 0 mm 3 m/s 761 mmHg 90%
22:00 +5°C° 0 mm 3 m/s 761 mmHg 91%
23:00 +6°C° 0 mm 2 m/s 762 mmHg 91%

Depois de amanhã, 20 Maio, Quinta-feira

Tempo Temperatura Precipitação Vento Pressão Humidade
00:00 +5°C° 0 mm 2 m/s 762 mmHg 92%
01:00 +5°C° 0 mm 2 m/s 762 mmHg 92%
02:00 +5°C° 0 mm 2 m/s 762 mmHg 92%
03:00 +5°C° 0 mm 2 m/s 762 mmHg 93%
04:00 +6°C° 0 mm 2 m/s 762 mmHg 93%
05:00 +7°C° 0 mm 2 m/s 762 mmHg 93%
06:00 +8°C° 0 mm 2 m/s 762 mmHg 94%
07:00 +9°C° 0 mm 3 m/s 762 mmHg 88%
08:00 +11°C° 0 mm 3 m/s 762 mmHg 82%
09:00 +12°C° 0 mm 4 m/s 762 mmHg 76%
10:00 +13°C° 0 mm 5 m/s 762 mmHg 71%
11:00 +14°C° 0 mm 5 m/s 761 mmHg 67%
12:00 +14°C° 0 mm 6 m/s 761 mmHg 63%
13:00 +14°C° 0.1 mm 6 m/s 761 mmHg 67%
14:00 +14°C° 0.1 mm 6 m/s 760 mmHg 71%
15:00 +13°C° 0.1 mm 6 m/s 760 mmHg 75%
16:00 +11°C° 0.2 mm 6 m/s 759 mmHg 80%
17:00 +10°C° 0.2 mm 6 m/s 759 mmHg 85%
18:00 +9°C° 0.2 mm 6 m/s 758 mmHg 90%
19:00 +9°C° 0.1 mm 6 m/s 758 mmHg 88%
20:00 +9°C° 0.1 mm 6 m/s 757 mmHg 86%
21:00 +9°C° 0.1 mm 7 m/s 757 mmHg 84%
22:00 +9°C° 0 mm 7 m/s 756 mmHg 83%
23:00 +10°C° 0 mm 7 m/s 755 mmHg 81%

21 Maio, Sexta-feira

Tempo Temperatura Precipitação Vento Pressão Humidade
00:00 +10°C° 0 mm 8 m/s 754 mmHg 79%
01:00 +9°C° 0.4 mm 8 m/s 753 mmHg 84%
02:00 +9°C° 0.4 mm 7 m/s 752 mmHg 89%
03:00 +8°C° 0.4 mm 7 m/s 752 mmHg 94%
04:00 +8°C° 0.1 mm 7 m/s 751 mmHg 94%
05:00 +9°C° 0.1 mm 7 m/s 750 mmHg 94%
06:00 +9°C° 0.1 mm 7 m/s 750 mmHg 95%
07:00 +10°C° 0.1 mm 7 m/s 749 mmHg 89%
08:00 +11°C° 0.1 mm 8 m/s 749 mmHg 83%
09:00 +12°C° 0.1 mm 8 m/s 748 mmHg 77%
10:00 +12°C° 0.2 mm 9 m/s 748 mmHg 74%
11:00 +12°C° 0.2 mm 9 m/s 747 mmHg 72%
12:00 +13°C° 0.2 mm 10 m/s 747 mmHg 69%
13:00 +12°C° 0.5 mm 10 m/s 746 mmHg 75%
14:00 +12°C° 0.5 mm 10 m/s 746 mmHg 81%
15:00 +11°C° 0.5 mm 10 m/s 745 mmHg 87%
16:00 +9°C° 0.5 mm 10 m/s 745 mmHg 88%
17:00 +8°C° 0.5 mm 10 m/s 744 mmHg 89%
18:00 +7°C° 0.5 mm 10 m/s 743 mmHg 91%
19:00 +7°C° 0.2 mm 10 m/s 743 mmHg 91%
20:00 +7°C° 0.2 mm 10 m/s 742 mmHg 91%
21:00 +7°C° 0.2 mm 10 m/s 742 mmHg 91%
22:00 +7°C° 0.2 mm 10 m/s 741 mmHg 91%
23:00 +7°C° 0.2 mm 10 m/s 741 mmHg 92%

22 Maio, Sábado

Tempo Temperatura Precipitação Vento Pressão Humidade
00:00 +7°C° 0.2 mm 10 m/s 740 mmHg 92%
01:00 +7°C° 0.1 mm 10 m/s 740 mmHg 91%
02:00 +7°C° 0.1 mm 10 m/s 739 mmHg 90%
03:00 +7°C° 0.1 mm 10 m/s 738 mmHg 89%
04:00 +7°C° 0.3 mm 10 m/s 738 mmHg 91%
05:00 +8°C° 0.3 mm 10 m/s 738 mmHg 92%
06:00 +8°C° 0.3 mm 10 m/s 738 mmHg 93%
07:00 +8°C° 0.5 mm 10 m/s 738 mmHg 93%
08:00 +8°C° 0.5 mm 10 m/s 738 mmHg 93%
09:00 +8°C° 0.5 mm 10 m/s 738 mmHg 94%
10:00 +8°C° 0.3 mm 9 m/s 739 mmHg 93%
11:00 +8°C° 0.3 mm 9 m/s 740 mmHg 93%
12:00 +8°C° 0.3 mm 9 m/s 740 mmHg 92%
13:00 +10°C° 0.4 mm 9 m/s 741 mmHg 91%
14:00 +11°C° 0.4 mm 9 m/s 741 mmHg 89%
15:00 +11°C° 0.4 mm 9 m/s 742 mmHg 88%
16:00 +11°C° 0.5 mm 9 m/s 742 mmHg 89%
17:00 +10°C° 0.5 mm 8 m/s 742 mmHg 89%
18:00 +10°C° 0.5 mm 8 m/s 743 mmHg 90%
19:00 +9°C° 0.1 mm 8 m/s 743 mmHg 90%
20:00 +7°C° 0.1 mm 8 m/s 744 mmHg 91%
21:00 +7°C° 0.1 mm 8 m/s 745 mmHg 91%
22:00 +7°C° 1.1 mm 8 m/s 745 mmHg 92%
23:00 +6°C° 1.1 mm 8 m/s 745 mmHg 93%

23 Maio, Domingo

Tempo Temperatura Precipitação Vento Pressão Humidade
00:00 +6°C° 1.1 mm 9 m/s 745 mmHg 94%
01:00 +6°C° 0.9 mm 8 m/s 746 mmHg 93%
02:00 +6°C° 0.9 mm 8 m/s 747 mmHg 92%
03:00 +5°C° 0.9 mm 7 m/s 748 mmHg 91%
04:00 +5°C° 0 mm 7 m/s 749 mmHg 89%
05:00 +5°C° 0 mm 7 m/s 749 mmHg 88%
06:00 +5°C° 0 mm 6 m/s 750 mmHg 87%
07:00 +6°C° 0 mm 7 m/s 751 mmHg 83%
08:00 +7°C° 0 mm 8 m/s 751 mmHg 78%
09:00 +9°C° 0 mm 8 m/s 752 mmHg 74%
10:00 +9°C° 0.1 mm 8 m/s 752 mmHg 70%
11:00 +10°C° 0.1 mm 8 m/s 752 mmHg 65%
12:00 +11°C° 0.1 mm 8 m/s 753 mmHg 61%
13:00 +10°C° 0.2 mm 8 m/s 753 mmHg 69%
14:00 +10°C° 0.2 mm 8 m/s 753 mmHg 77%
15:00 +9°C° 0.2 mm 8 m/s 753 mmHg 85%
16:00 +9°C° 0.1 mm 7 m/s 753 mmHg 87%
17:00 +8°C° 0.1 mm 7 m/s 753 mmHg 89%
18:00 +8°C° 0.1 mm 6 m/s 753 mmHg 91%
19:00 +8°C° 0.2 mm 7 m/s 752 mmHg 93%
20:00 +8°C° 0.2 mm 7 m/s 752 mmHg 94%
21:00 +8°C° 0.2 mm 7 m/s 752 mmHg 96%
22:00 +9°C° 0.5 mm 6 m/s 752 mmHg 96%
23:00 +9°C° 0.5 mm 6 m/s 752 mmHg 96%
Mostrar mais

Necessitamos do seu Consentimento

A Meteoprog e os seus Fornecedores de Serviços podem armazenar e aceder a dados pessoais como cookies, identificadores do dispositivo ou outras tecnologias semelhantes existentes no seu dispositivo e processar estes dados para personalizar conteúdos e anúncios, assim como funcionalidades nas redes sociais e análise de tráfego.

  • Armazenar e/ou aceder a informações no seu dispositivo

    Os cookies, identificadores do dispositivo ou outras informações podem ser armazenados ou acedidos no seu dispositivo, para os fins acima indicados.

  • Anúncios e conteúdos personalizados, medição de anúncios e conteúdos, dados sobre o público-alvo e desenvolvimento de produtos

    Os anúncios e os conteúdos podem ser personalizados com base num perfil. Podem ser adicionados dados adicionais para uma maior personalização dos anúncios e dos conteúdos. A eficácia dos anúncios e dos conteúdos pode ser medida. Podem ser obtidas informações sobre o público que visualizou os anúncios e os conteúdos. Estes dados podem ser usados para desenvolver ou melhorar sistemas, softwares ou a experiência do utilizador.

Ao clicar em "Eu concordo”, permitirá o uso de cookies, identificadores do dispositivo e web beacons mencionados ou outras tecnologias semelhantes. As configurações do navegador do seu dispositivo podem ser alteradas.

Para certos fins, podem ser invocados interesses legítimos ao invés de consentimento. Pode ler mais informação sobre este assunto na nossa Política de Privacidade e Cookies.